| time (UTC) | temp F | wind direction | speed MPH | gust MPH | rain 1hr in | rain 24hr in | rain mn in | humidity % | barometer mb |
| 20260510142204 | 71 | 327 | 6.0 | 8.0 | 0.00 | 0.00 | 0.00 | 60 | 1018.2 |
| 20260510141701 | 71 | 316 | 7.0 | 8.0 | 0.00 | 0.00 | 0.00 | 59 | 1018.2 |
| 20260510141200 | 69 | 115 | 1.0 | 2.0 | 0.00 | 0.00 | 0.00 | 61 | 1018.1 |
| 20260510140656 | 69 | 3 | 3.0 | 3.0 | 0.00 | 0.00 | 0.00 | 62 | 1017.9 |
| 20260510140155 | 68 | 311 | 5.0 | 8.0 | 0.00 | 0.00 | 0.00 | 63 | 1018.2 |
| 20260510135650 | 68 | 293 | 1.0 | 2.0 | 0.00 | 0.00 | 0.00 | 64 | 1018.3 |
| 20260510135147 | 67 | 33 | 1.0 | 2.0 | 0.00 | 0.00 | 0.00 | 65 | 1018.2 |
| 20260510134644 | 68 | 342 | 5.0 | 7.0 | 0.00 | 0.00 | 0.00 | 65 | 1018.3 |
| 20260510134141 | 67 | 9 | 7.0 | 10.0 | 0.00 | 0.00 | 0.00 | 65 | 1018.4 |
| 20260510133637 | 67 | 197 | 5.0 | 7.0 | 0.00 | 0.00 | 0.00 | 65 | 1018.4 |
| 20260510133132 | 67 | 236 | 3.0 | 3.0 | 0.00 | 0.00 | 0.00 | 66 | 1018.2 |
| 20260510132629 | 66 | 323 | 4.0 | 7.0 | 0.00 | 0.00 | 0.00 | 67 | 1018.2 |
| 20260510132127 | 65 | 310 | 3.0 | 3.0 | 0.00 | 0.00 | 0.00 | 67 | 1018.2 |
| 20260510131624 | 66 | 275 | 3.0 | 5.0 | 0.00 | 0.00 | 0.00 | 67 | 1018.3 |
| 20260510131121 | 65 | 242 | 1.0 | 1.0 | 0.00 | 0.00 | 0.00 | 67 | 1018.2 |
| 20260510130618 | 64 | 346 | 2.0 | 2.0 | 0.00 | 0.00 | 0.00 | 68 | 1018.3 |
| 20260510130115 | 64 | 310 | 2.0 | 3.0 | 0.00 | 0.00 | 0.00 | 69 | 1018.0 |
| 20260510125612 | 64 | 259 | 7.0 | 8.0 | 0.00 | 0.00 | 0.00 | 69 | 1018.4 |
| 20260510125108 | 64 | 6 | 4.0 | 6.0 | 0.00 | 0.00 | 0.00 | 69 | 1018.3 |
| 20260510124604 | 63 | 317 | 2.0 | 3.0 | 0.00 | 0.00 | 0.00 | 70 | 1018.1 |
| 20260510124102 | 63 | 301 | 2.0 | 2.0 | 0.00 | 0.00 | 0.00 | 71 | 1018.1 |
| 20260510123556 | 62 | 13 | 2.0 | 3.0 | 0.00 | 0.00 | 0.00 | 72 | 1018.2 |
| 20260510123053 | 62 | 301 | 5.0 | 8.0 | 0.00 | 0.00 | 0.00 | 74 | 1018.1 |
| 20260510122549 | 61 | 166 | 3.0 | 6.0 | 0.00 | 0.00 | 0.00 | 75 | 1018.1 |
| 20260510122045 | 60 | 266 | 1.0 | 2.0 | 0.00 | 0.00 | 0.00 | 76 | 1018.1 |
| 20260510121543 | 60 | 294 | 3.0 | 3.0 | 0.00 | 0.00 | 0.00 | 78 | 1018.0 |
| 20260510121040 | 59 | 300 | 3.0 | 3.0 | 0.00 | 0.00 | 0.00 | 79 | 1018.1 |
| 20260510120537 | 58 | 309 | 2.0 | 3.0 | 0.00 | 0.00 | 0.00 | 80 | 1017.9 |
| 20260510120032 | 58 | 259 | 3.0 | 5.0 | 0.00 | 0.00 | 0.00 | 81 | 1018.0 |
| 20260510115529 | 57 | 325 | 1.0 | 2.0 | 0.00 | 0.00 | 0.00 | 82 | 1018.0 |
| 20260510115026 | 57 | 204 | 2.0 | 3.0 | 0.00 | 0.00 | 0.00 | 83 | 1017.8 |
| 20260510114522 | 56 | 293 | 2.0 | 3.0 | 0.00 | 0.00 | 0.00 | 84 | 1017.8 |
| 20260510114019 | 55 | 291 | 1.0 | 2.0 | 0.00 | 0.00 | 0.00 | 84 | 1017.8 |
| 20260510113514 | 55 | 313 | 1.0 | 2.0 | 0.00 | 0.00 | 0.00 | 85 | 1017.5 |
| 20260510113012 | 55 | 299 | 2.0 | 3.0 | 0.00 | 0.00 | 0.00 | 85 | 1017.9 |
| 20260510112508 | 54 | 333 | 1.0 | 2.0 | 0.00 | 0.00 | 0.00 | 85 | 1017.6 |
| 20260510112005 | 54 | 329 | 2.0 | 2.0 | 0.00 | 0.00 | 0.00 | 86 | 1017.5 |
| 20260510111501 | 54 | 317 | 2.0 | 2.0 | 0.00 | 0.00 | 0.00 | 86 | 1017.5 |
| 20260510110957 | 54 | 285 | 0.0 | 1.0 | 0.00 | 0.00 | 0.00 | 86 | 1017.3 |
| 20260510110454 | 53 | 306 | 3.0 | 3.0 | 0.00 | 0.00 | 0.00 | 87 | 1017.2 |
| 20260510105950 | 53 | 306 | 2.0 | 2.0 | 0.00 | 0.00 | 0.00 | 87 | 1017.2 |
| 20260510105445 | 53 | 302 | 1.0 | 1.0 | 0.00 | 0.00 | 0.00 | 87 | 1017.0 |
| 20260510104940 | 53 | 304 | 1.0 | 2.0 | 0.00 | 0.00 | 0.00 | 88 | 1016.8 |
| 20260510104437 | 53 | 339 | 1.0 | 1.0 | 0.00 | 0.00 | 0.00 | 88 | 1016.7 |
| 20260510103933 | 53 | 298 | 2.0 | 2.0 | 0.00 | 0.00 | 0.00 | 88 | 1016.7 |
| 20260510103431 | 53 | 294 | 1.0 | 1.0 | 0.00 | 0.00 | 0.00 | 87 | 1016.8 |
| 20260510102926 | 53 | 325 | 1.0 | 1.0 | 0.00 | 0.00 | 0.00 | 87 | 1016.9 |
| 20260510102422 | 53 | 292 | 0.0 | 0.0 | 0.00 | 0.00 | 0.00 | 87 | 1016.6 |
| 20260510101919 | 53 | 216 | 1.0 | 2.0 | 0.00 | 0.00 | 0.00 | 86 | 1016.4 |
| 20260510101417 | 53 | 252 | 1.0 | 2.0 | 0.00 | 0.00 | 0.00 | 86 | 1016.3 |
| 20260510100915 | 53 | 260 | 0.0 | 1.0 | 0.00 | 0.00 | 0.00 | 86 | 1016.5 |
| 20260510100411 | 53 | 251 | 1.0 | 1.0 | 0.00 | 0.00 | 0.00 | 86 | 1016.4 |
| 20260510095908 | 53 | 302 | 5.0 | 6.0 | 0.00 | 0.00 | 0.00 | 86 | 1016.4 |
| 20260510095403 | 53 | 353 | 4.0 | 6.0 | 0.00 | 0.00 | 0.00 | 86 | 1016.4 |
| 20260510094902 | 53 | 284 | 1.0 | 1.0 | 0.00 | 0.00 | 0.00 | 86 | 1016.6 |
| 20260510094357 | 53 | 241 | 2.0 | 2.0 | 0.00 | 0.00 | 0.00 | 87 | 1016.3 |
| 20260510093854 | 53 | 61 | 1.0 | 1.0 | 0.00 | 0.00 | 0.00 | 87 | 1016.4 |
| 20260510093349 | 53 | 33 | 2.0 | 2.0 | 0.00 | 0.00 | 0.00 | 87 | 1016.2 |
| 20260510092846 | 52 | 42 | 1.0 | 1.0 | 0.00 | 0.00 | 0.00 | 88 | 1016.0 |
| 20260510092343 | 52 | 334 | 1.0 | 1.0 | 0.00 | 0.00 | 0.00 | 87 | 1015.9 |
| 20260510091838 | 53 | 15 | 1.0 | 2.0 | 0.00 | 0.00 | 0.00 | 86 | 1015.9 |
| 20260510091336 | 53 | 335 | 1.0 | 1.0 | 0.00 | 0.00 | 0.00 | 85 | 1015.7 |
| 20260510090832 | 54 | 117 | 2.0 | 2.0 | 0.00 | 0.00 | 0.00 | 83 | 1015.8 |
| 20260510090329 | 56 | 184 | 2.0 | 2.0 | 0.00 | 0.00 | 0.00 | 81 | 1016.0 |
| 20260510085824 | 57 | 147 | 3.0 | 3.0 | 0.00 | 0.00 | 0.00 | 78 | 1015.7 |
| 20260510085324 | 57 | 254 | 1.0 | 1.0 | 0.00 | 0.00 | 0.00 | 78 | 1015.7 |
| 20260510084820 | 57 | 336 | 3.0 | 3.0 | 0.00 | 0.00 | 0.00 | 78 | 1015.7 |
| 20260510084317 | 57 | 333 | 4.0 | 5.0 | 0.00 | 0.00 | 0.00 | 78 | 1015.7 |
| 20260510083814 | 58 | 286 | 3.0 | 3.0 | 0.00 | 0.00 | 0.00 | 77 | 1015.7 |
| 20260510083311 | 58 | 306 | 4.0 | 5.0 | 0.00 | 0.00 | 0.00 | 77 | 1015.5 |
| 20260510082806 | 58 | 315 | 3.0 | 3.0 | 0.00 | 0.00 | 0.00 | 77 | 1015.7 |
| 20260510082306 | 58 | 118 | 3.0 | 8.0 | 0.00 | 0.00 | 0.00 | 76 | 1015.6 |
| 20260510081802 | 59 | 356 | 4.0 | 5.0 | 0.00 | 0.00 | 0.00 | 74 | 1015.4 |
| 20260510081259 | 57 | 309 | 2.0 | 3.0 | 0.00 | 0.00 | 0.00 | 78 | 1015.3 |
| 20260510080754 | 56 | 321 | 3.0 | 5.0 | 0.00 | 0.00 | 0.00 | 79 | 1015.3 |
| 20260510080250 | 58 | 274 | 2.0 | 3.0 | 0.00 | 0.00 | 0.00 | 76 | 1015.4 |
| 20260510075747 | 60 | 294 | 2.0 | 2.0 | 0.00 | 0.00 | 0.00 | 73 | 1015.2 |
| 20260510075245 | 60 | 299 | 1.0 | 2.0 | 0.00 | 0.00 | 0.00 | 72 | 1015.2 |
| 20260510074741 | 60 | 273 | 5.0 | 7.0 | 0.00 | 0.00 | 0.00 | 72 | 1015.2 |
| 20260510074238 | 60 | 135 | 2.0 | 3.0 | 0.00 | 0.00 | 0.00 | 72 | 1015.0 |
| 20260510073734 | 58 | 309 | 6.0 | 7.0 | 0.00 | 0.00 | 0.00 | 75 | 1015.2 |
| 20260510073230 | 56 | 304 | 2.0 | 2.0 | 0.00 | 0.00 | 0.00 | 78 | 1015.0 |
| 20260510072726 | 56 | 299 | 1.0 | 1.0 | 0.00 | 0.00 | 0.00 | 80 | 1015.3 |
| 20260510072223 | 55 | 303 | 0.0 | 1.0 | 0.00 | 0.00 | 0.00 | 80 | 1015.0 |
| 20260510071719 | 55 | 290 | 1.0 | 1.0 | 0.00 | 0.00 | 0.00 | 80 | 1015.2 |
| 20260510071216 | 55 | 269 | 2.0 | 2.0 | 0.00 | 0.00 | 0.00 | 81 | 1015.0 |
| 20260510070714 | 55 | 279 | 1.0 | 1.0 | 0.00 | 0.00 | 0.00 | 82 | 1015.1 |
| 20260510070211 | 54 | 317 | 0.0 | 1.0 | 0.00 | 0.00 | 0.00 | 83 | 1014.9 |
| 20260510065706 | 54 | 300 | 0.0 | 1.0 | 0.00 | 0.00 | 0.00 | 84 | 1014.8 |
| 20260510065203 | 53 | 295 | 1.0 | 1.0 | 0.00 | 0.00 | 0.00 | 85 | 1014.8 |
| 20260510064659 | 53 | 290 | 0.0 | 1.0 | 0.00 | 0.00 | 0.00 | 86 | 1015.0 |
| 20260510064156 | 53 | 305 | 0.0 | 0.0 | 0.00 | 0.00 | 0.00 | 86 | 1014.9 |
| 20260510063654 | 53 | 299 | 0.0 | 1.0 | 0.00 | 0.00 | 0.00 | 86 | 1014.9 |
| 20260510063150 | 53 | 302 | 1.0 | 1.0 | 0.00 | 0.00 | 0.00 | 85 | 1015.0 |
| 20260510062646 | 53 | 301 | 2.0 | 2.0 | 0.00 | 0.00 | 0.00 | 84 | 1015.2 |
| 20260510062142 | 54 | 303 | 1.0 | 1.0 | 0.00 | 0.00 | 0.00 | 83 | 1015.3 |
| 20260510061637 | 55 | 307 | 1.0 | 1.0 | 0.00 | 0.00 | 0.00 | 81 | 1015.1 |
| 20260510061135 | 55 | 267 | 0.0 | 1.0 | 0.00 | 0.00 | 0.00 | 81 | 1015.3 |
| 20260510060631 | 55 | 296 | 1.0 | 1.0 | 0.00 | 0.00 | 0.00 | 81 | 1015.1 |
| 20260510060128 | 55 | 302 | 0.0 | 0.0 | 0.00 | 0.00 | 0.00 | 81 | 1015.1 |
| 20260510055624 | 55 | 304 | 0.0 | 1.0 | 0.00 | 0.00 | 0.00 | 80 | 1015.1 |
| 20260510055123 | 55 | 323 | 0.0 | 0.0 | 0.00 | 0.00 | 0.00 | 80 | 1015.3 |
| 20260510054617 | 56 | 303 | 0.0 | 0.0 | 0.00 | 0.00 | 0.00 | 80 | 1015.3 |
| 20260510054113 | 56 | 293 | 0.0 | 1.0 | 0.00 | 0.00 | 0.00 | 80 | 1015.4 |
| 20260510053612 | 56 | 305 | 1.0 | 1.0 | 0.00 | 0.00 | 0.00 | 80 | 1015.2 |
| 20260510053110 | 55 | 315 | 2.0 | 2.0 | 0.00 | 0.00 | 0.00 | 82 | 1015.2 |
| 20260510052605 | 55 | 304 | 0.0 | 1.0 | 0.00 | 0.00 | 0.00 | 82 | 1015.2 |
| 20260510052102 | 55 | 336 | 1.0 | 1.0 | 0.00 | 0.00 | 0.00 | 81 | 1015.2 |
| 20260510051558 | 55 | 309 | 2.0 | 2.0 | 0.00 | 0.00 | 0.00 | 81 | 1015.0 |
| 20260510051055 | 55 | 326 | 3.0 | 3.0 | 0.00 | 0.00 | 0.00 | 80 | 1015.3 |
| 20260510050552 | 55 | 304 | 1.0 | 1.0 | 0.00 | 0.00 | 0.00 | 80 | 1015.1 |
| 20260510050049 | 55 | 304 | 2.0 | 2.0 | 0.00 | 0.00 | 0.00 | 80 | 1015.0 |
| 20260510045546 | 55 | 308 | 0.0 | 1.0 | 0.00 | 0.00 | 0.00 | 80 | 1015.1 |
| 20260510045042 | 56 | 306 | 0.0 | 0.0 | 0.00 | 0.00 | 0.00 | 79 | 1015.0 |
| 20260510044539 | 56 | 308 | 1.0 | 1.0 | 0.00 | 0.00 | 0.00 | 79 | 1015.0 |
| 20260510044036 | 56 | 307 | 1.0 | 1.0 | 0.00 | 0.00 | 0.00 | 78 | 1014.9 |
| 20260510043532 | 56 | 281 | 3.0 | 3.0 | 0.00 | 0.00 | 0.00 | 79 | 1014.9 |
| 20260510043027 | 57 | 305 | 1.0 | 2.0 | 0.00 | 0.00 | 0.00 | 78 | 1015.3 |
| 20260510042522 | 57 | 302 | 1.0 | 1.0 | 0.00 | 0.00 | 0.00 | 77 | 1015.1 |
| 20260510042022 | 57 | 303 | 1.0 | 1.0 | 0.00 | 0.00 | 0.00 | 77 | 1015.1 |
| 20260510041520 | 57 | 310 | 0.0 | 0.0 | 0.00 | 0.00 | 0.00 | 76 | 1015.0 |
| 20260510041017 | 57 | 9 | 1.0 | 1.0 | 0.00 | 0.00 | 0.00 | 76 | 1015.0 |
| 20260510040513 | 58 | 326 | 0.0 | 1.0 | 0.00 | 0.00 | 0.00 | 76 | 1015.0 |
| 20260510040009 | 58 | 307 | 1.0 | 1.0 | 0.00 | 0.00 | 0.00 | 75 | 1014.8 |
| 20260510035506 | 58 | 303 | 0.0 | 0.0 | 0.00 | 0.00 | 0.00 | 75 | 1014.7 |
| 20260510035005 | 58 | 325 | 0.0 | 0.0 | 0.00 | 0.00 | 0.00 | 75 | 1014.8 |
| 20260510034504 | 58 | 324 | 0.0 | 1.0 | 0.00 | 0.00 | 0.00 | 74 | 1015.0 |
| 20260510034000 | 59 | 284 | 0.0 | 1.0 | 0.00 | 0.00 | 0.00 | 73 | 1015.0 |
| 20260510033456 | 59 | 312 | 1.0 | 1.0 | 0.00 | 0.00 | 0.00 | 73 | 1014.8 |
| 20260510032954 | 59 | 4 | 1.0 | 1.0 | 0.00 | 0.00 | 0.00 | 73 | 1014.7 |
| 20260510032450 | 59 | 303 | 0.0 | 0.0 | 0.00 | 0.00 | 0.00 | 73 | 1014.5 |
| 20260510031945 | 59 | 299 | 1.0 | 2.0 | 0.00 | 0.00 | 0.00 | 72 | 1014.7 |
| 20260510031441 | 59 | 320 | 0.0 | 0.0 | 0.00 | 0.00 | 0.00 | 71 | 1014.7 |
| 20260510030937 | 59 | 263 | 1.0 | 2.0 | 0.00 | 0.00 | 0.00 | 70 | 1014.9 |
| 20260510030432 | 59 | 311 | 0.0 | 0.0 | 0.00 | 0.00 | 0.00 | 71 | 1014.7 |
| 20260510025930 | 59 | 304 | 0.0 | 1.0 | 0.00 | 0.00 | 0.00 | 71 | 1014.4 |
| 20260510025427 | 58 | 305 | 1.0 | 1.0 | 0.00 | 0.00 | 0.00 | 73 | 1014.4 |
| 20260510024924 | 58 | 325 | 0.0 | 1.0 | 0.00 | 0.00 | 0.00 | 74 | 1014.5 |
| 20260510024420 | 59 | 294 | 2.0 | 2.0 | 0.00 | 0.00 | 0.00 | 74 | 1014.3 |
| 20260510023917 | 59 | 289 | 3.0 | 3.0 | 0.00 | 0.00 | 0.00 | 73 | 1014.2 |
| 20260510023413 | 59 | 325 | 1.0 | 2.0 | 0.00 | 0.00 | 0.00 | 73 | 1014.3 |
| 20260510022911 | 59 | 303 | 2.0 | 2.0 | 0.00 | 0.00 | 0.00 | 73 | 1014.4 |
| 20260510022409 | 59 | 298 | 2.0 | 2.0 | 0.00 | 0.00 | 0.00 | 72 | 1014.4 |
| 20260510021909 | 59 | 297 | 2.0 | 2.0 | 0.00 | 0.00 | 0.00 | 71 | 1014.4 |
| 20260510021407 | 60 | 325 | 2.0 | 2.0 | 0.00 | 0.00 | 0.00 | 70 | 1014.3 |
| 20260510020903 | 60 | 288 | 1.0 | 2.0 | 0.00 | 0.00 | 0.00 | 70 | 1014.5 |
| 20260510020358 | 60 | 301 | 2.0 | 2.0 | 0.00 | 0.00 | 0.00 | 69 | 1014.3 |
| 20260510015854 | 60 | 303 | 1.0 | 1.0 | 0.00 | 0.00 | 0.00 | 68 | 1014.1 |
| 20260510015350 | 61 | 304 | 0.0 | 0.0 | 0.00 | 0.00 | 0.00 | 67 | 1014.1 |
| 20260510014845 | 61 | 298 | 1.0 | 1.0 | 0.00 | 0.00 | 0.00 | 67 | 1013.9 |
| 20260510014343 | 61 | 301 | 1.0 | 1.0 | 0.00 | 0.00 | 0.00 | 66 | 1013.9 |
| 20260510013839 | 62 | 302 | 1.0 | 1.0 | 0.00 | 0.00 | 0.00 | 65 | 1013.8 |
| 20260510013335 | 62 | 306 | 0.0 | 1.0 | 0.00 | 0.00 | 0.00 | 64 | 1013.5 |
| 20260510012830 | 62 | 320 | 0.0 | 1.0 | 0.00 | 0.00 | 0.00 | 64 | 1013.4 |
| 20260510012330 | 63 | 336 | 1.0 | 1.0 | 0.00 | 0.00 | 0.00 | 62 | 1013.0 |
| 20260510011825 | 63 | 1 | 1.0 | 1.0 | 0.00 | 0.00 | 0.00 | 62 | 1013.2 |
| 20260510011320 | 64 | 302 | 1.0 | 1.0 | 0.00 | 0.00 | 0.00 | 61 | 1012.9 |
| 20260510010817 | 64 | 300 | 1.0 | 1.0 | 0.00 | 0.00 | 0.00 | 59 | 1012.8 |
| 20260510010314 | 64 | 303 | 2.0 | 2.0 | 0.00 | 0.00 | 0.00 | 59 | 1012.8 |
| 20260510005811 | 64 | 303 | 2.0 | 2.0 | 0.00 | 0.00 | 0.00 | 59 | 1012.8 |
| 20260510005307 | 64 | 300 | 1.0 | 1.0 | 0.00 | 0.00 | 0.00 | 60 | 1012.9 |
| 20260510004805 | 65 | 301 | 1.0 | 1.0 | 0.00 | 0.00 | 0.00 | 58 | 1012.8 |
| 20260510004302 | 66 | 298 | 2.0 | 2.0 | 0.00 | 0.00 | 0.00 | 57 | 1012.8 |
| 20260510003759 | 67 | 299 | 2.0 | 2.0 | 0.00 | 0.00 | 0.00 | 55 | 1012.7 |
| 20260510003257 | 67 | 318 | 2.0 | 2.0 | 0.00 | 0.00 | 0.00 | 53 | 1012.8 |
| 20260510002755 | 68 | 325 | 2.0 | 2.0 | 0.00 | 0.00 | 0.00 | 52 | 1012.7 |
| 20260510002253 | 69 | 304 | 1.0 | 1.0 | 0.00 | 0.00 | 0.00 | 50 | 1012.6 |
| 20260510001749 | 70 | 295 | 1.0 | 2.0 | 0.00 | 0.00 | 0.00 | 49 | 1012.5 |
| 20260510001248 | 69 | 331 | 1.0 | 2.0 | 0.00 | 0.00 | 0.00 | 47 | 1012.4 |
| 20260510000743 | 70 | 301 | 2.0 | 2.0 | 0.00 | 0.00 | 0.00 | 48 | 1012.5 |
| 20260510000241 | 70 | 295 | 2.0 | 2.0 | 0.00 | 0.00 | 0.00 | 48 | 1012.3 |
| 20260509235737 | 71 | 329 | 2.0 | 2.0 | 0.00 | 0.00 | 0.00 | 47 | 1012.1 |
| 20260509235234 | 71 | 303 | 2.0 | 2.0 | 0.00 | 0.00 | 0.00 | 46 | 1012.2 |
| 20260509234729 | 71 | 285 | 2.0 | 2.0 | 0.00 | 0.00 | 0.00 | 45 | 1012.0 |
| 20260509234227 | 72 | 269 | 4.0 | 5.0 | 0.00 | 0.00 | 0.00 | 45 | 1011.9 |
| 20260509233725 | 73 | 300 | 1.0 | 2.0 | 0.00 | 0.00 | 0.00 | 44 | 1012.1 |
| 20260509233222 | 73 | 303 | 2.0 | 2.0 | 0.00 | 0.00 | 0.00 | 43 | 1011.8 |
| 20260509232718 | 74 | 273 | 5.0 | 6.0 | 0.00 | 0.00 | 0.00 | 42 | 1011.9 |
| 20260509232216 | 74 | 266 | 3.0 | 5.0 | 0.00 | 0.00 | 0.00 | 42 | 1012.0 |
| 20260509231712 | 74 | 332 | 3.0 | 3.0 | 0.00 | 0.00 | 0.00 | 42 | 1011.9 |
| 20260509231209 | 74 | 311 | 4.0 | 6.0 | 0.00 | 0.00 | 0.00 | 42 | 1011.8 |
| 20260509230707 | 74 | 250 | 7.0 | 9.0 | 0.00 | 0.00 | 0.00 | 41 | 1011.9 |
| 20260509230203 | 74 | 287 | 3.0 | 3.0 | 0.00 | 0.00 | 0.00 | 42 | 1011.5 |
| 20260509225659 | 75 | 308 | 8.0 | 10.0 | 0.00 | 0.00 | 0.00 | 41 | 1011.7 |
| 20260509225154 | 76 | 284 | 4.0 | 7.0 | 0.00 | 0.00 | 0.00 | 42 | 1011.8 |
| 20260509224651 | 76 | 307 | 3.0 | 5.0 | 0.00 | 0.00 | 0.00 | 42 | 1011.5 |
| 20260509224148 | 76 | 272 | 2.0 | 5.0 | 0.00 | 0.00 | 0.00 | 42 | 1011.5 |
| 20260509223644 | 75 | 292 | 1.0 | 1.0 | 0.00 | 0.00 | 0.00 | 43 | 1011.7 |
| 20260509223142 | 74 | 305 | 2.0 | 2.0 | 0.00 | 0.00 | 0.00 | 45 | 1011.7 |
| 20260509222639 | 75 | 304 | 2.0 | 2.0 | 0.00 | 0.00 | 0.00 | 44 | 1011.5 |
| 20260509222134 | 75 | 286 | 2.0 | 2.0 | 0.00 | 0.00 | 0.00 | 44 | 1011.6 |
| 20260509221630 | 75 | 296 | 2.0 | 3.0 | 0.00 | 0.00 | 0.00 | 42 | 1011.4 |
| 20260509221126 | 75 | 312 | 2.0 | 3.0 | 0.00 | 0.00 | 0.00 | 42 | 1011.5 |
| 20260509220622 | 75 | 83 | 3.0 | 3.0 | 0.00 | 0.00 | 0.00 | 42 | 1011.5 |
| 20260509220118 | 76 | 136 | 5.0 | 6.0 | 0.00 | 0.00 | 0.00 | 42 | 1011.3 |
| 20260509215614 | 76 | 263 | 4.0 | 7.0 | 0.00 | 0.00 | 0.00 | 41 | 1011.3 |
| 20260509215111 | 75 | 347 | 2.0 | 3.0 | 0.00 | 0.00 | 0.00 | 42 | 1011.6 |
| 20260509214608 | 75 | 235 | 5.0 | 8.0 | 0.00 | 0.00 | 0.00 | 42 | 1011.6 |
| 20260509214105 | 75 | 312 | 3.0 | 3.0 | 0.00 | 0.00 | 0.00 | 44 | 1011.4 |
| 20260509213601 | 75 | 288 | 5.0 | 7.0 | 0.00 | 0.00 | 0.00 | 44 | 1011.1 |
| 20260509213058 | 75 | 303 | 4.0 | 5.0 | 0.00 | 0.00 | 0.00 | 43 | 1011.3 |
| 20260509212555 | 76 | 158 | 3.0 | 5.0 | 0.00 | 0.00 | 0.00 | 42 | 1011.3 |
| 20260509212052 | 75 | 330 | 1.0 | 2.0 | 0.00 | 0.00 | 0.00 | 43 | 1011.0 |
| 20260509211548 | 75 | 308 | 3.0 | 6.0 | 0.00 | 0.00 | 0.00 | 43 | 1011.0 |
| 20260509211044 | 75 | 148 | 5.0 | 8.0 | 0.00 | 0.00 | 0.00 | 43 | 1010.8 |
| 20260509210542 | 76 | 336 | 4.0 | 5.0 | 0.00 | 0.00 | 0.00 | 43 | 1010.9 |
| 20260509210038 | 76 | 196 | 4.0 | 5.0 | 0.00 | 0.00 | 0.00 | 42 | 1011.0 |
| 20260509205538 | 76 | 261 | 3.0 | 5.0 | 0.00 | 0.00 | 0.00 | 42 | 1011.1 |
| 20260509205033 | 76 | 256 | 4.0 | 6.0 | 0.00 | 0.00 | 0.00 | 42 | 1011.3 |
| 20260509204530 | 75 | 315 | 4.0 | 5.0 | 0.00 | 0.00 | 0.00 | 42 | 1011.0 |
| 20260509204026 | 75 | 316 | 4.0 | 7.0 | 0.00 | 0.00 | 0.00 | 42 | 1011.0 |
| 20260509203522 | 75 | 338 | 5.0 | 6.0 | 0.00 | 0.00 | 0.00 | 41 | 1010.9 |
| 20260509203022 | 75 | 193 | 1.0 | 2.0 | 0.00 | 0.00 | 0.00 | 42 | 1010.7 |
| 20260509202521 | 76 | 324 | 3.0 | 6.0 | 0.00 | 0.00 | 0.00 | 41 | 1011.0 |
| 20260509202017 | 76 | 197 | 1.0 | 2.0 | 0.00 | 0.00 | 0.00 | 40 | 1010.9 |
| 20260509201512 | 76 | 302 | 3.0 | 6.0 | 0.00 | 0.00 | 0.00 | 40 | 1010.8 |
| 20260509201010 | 76 | 322 | 1.0 | 1.0 | 0.00 | 0.00 | 0.00 | 41 | 1010.8 |
| 20260509200504 | 76 | 202 | 5.0 | 7.0 | 0.00 | 0.00 | 0.00 | 41 | 1010.8 |
| 20260509200001 | 75 | 2 | 5.0 | 7.0 | 0.00 | 0.00 | 0.00 | 41 | 1010.9 |
| 20260509195456 | 75 | 274 | 3.0 | 3.0 | 0.00 | 0.00 | 0.00 | 41 | 1010.9 |
| 20260509194955 | 75 | 60 | 4.0 | 7.0 | 0.00 | 0.00 | 0.00 | 42 | 1010.8 |
| 20260509194451 | 75 | 311 | 5.0 | 7.0 | 0.00 | 0.00 | 0.00 | 42 | 1010.9 |
| 20260509193949 | 76 | 145 | 7.0 | 8.0 | 0.00 | 0.00 | 0.00 | 41 | 1010.9 |
| 20260509193449 | 77 | 325 | 9.0 | 16.0 | 0.00 | 0.00 | 0.00 | 40 | 1010.9 |
| 20260509192945 | 77 | 330 | 6.0 | 10.0 | 0.00 | 0.00 | 0.00 | 41 | 1011.0 |
| 20260509192442 | 76 | 305 | 3.0 | 5.0 | 0.00 | 0.00 | 0.00 | 41 | 1010.9 |
| 20260509191937 | 77 | 240 | 6.0 | 7.0 | 0.00 | 0.00 | 0.00 | 41 | 1010.9 |
| 20260509191432 | 77 | 32 | 1.0 | 2.0 | 0.00 | 0.00 | 0.00 | 41 | 1011.2 |
| 20260509190928 | 76 | 158 | 5.0 | 6.0 | 0.00 | 0.00 | 0.00 | 42 | 1011.1 |
| 20260509190426 | 76 | 141 | 3.0 | 5.0 | 0.00 | 0.00 | 0.00 | 43 | 1011.1 |
| 20260509185923 | 76 | 216 | 5.0 | 7.0 | 0.00 | 0.00 | 0.00 | 42 | 1011.1 |
| 20260509185421 | 77 | 339 | 2.0 | 3.0 | 0.00 | 0.00 | 0.00 | 41 | 1011.3 |
| 20260509184917 | 77 | 294 | 10.0 | 15.0 | 0.00 | 0.00 | 0.00 | 41 | 1011.2 |
| 20260509184414 | 76 | 319 | 5.0 | 8.0 | 0.00 | 0.00 | 0.00 | 42 | 1011.3 |
| 20260509183911 | 76 | 245 | 6.0 | 8.0 | 0.00 | 0.00 | 0.00 | 42 | 1011.2 |
| 20260509183405 | 76 | 207 | 8.0 | 11.0 | 0.00 | 0.00 | 0.00 | 41 | 1011.3 |
| 20260509182902 | 76 | 175 | 6.0 | 9.0 | 0.00 | 0.00 | 0.00 | 41 | 1011.4 |
| 20260509182359 | 76 | 174 | 12.0 | 16.0 | 0.00 | 0.00 | 0.00 | 41 | 1011.6 |
| 20260509181856 | 76 | 239 | 7.0 | 9.0 | 0.00 | 0.00 | 0.00 | 44 | 1011.5 |
| 20260509181347 | 75 | 160 | 5.0 | 7.0 | 0.00 | 0.00 | 0.00 | 43 | 1011.7 |
| 20260509180845 | 75 | 216 | 5.0 | 6.0 | 0.00 | 0.00 | 0.00 | 43 | 1011.9 |
| 20260509180341 | 75 | 197 | 3.0 | 5.0 | 0.00 | 0.00 | 0.00 | 44 | 1011.9 |
| 20260509175838 | 75 | 223 | 8.0 | 16.0 | 0.00 | 0.00 | 0.00 | 44 | 1011.6 |
| 20260509175334 | 75 | 351 | 5.0 | 7.0 | 0.00 | 0.00 | 0.00 | 43 | 1012.0 |
| 20260509174830 | 75 | 194 | 4.0 | 6.0 | 0.00 | 0.00 | 0.00 | 44 | 1012.0 |
| 20260509174326 | 75 | 200 | 4.0 | 5.0 | 0.00 | 0.00 | 0.00 | 44 | 1011.8 |
| 20260509173822 | 75 | 70 | 5.0 | 6.0 | 0.00 | 0.00 | 0.00 | 45 | 1011.9 |
| 20260509173317 | 74 | 250 | 1.0 | 2.0 | 0.00 | 0.00 | 0.00 | 46 | 1012.1 |
| 20260509172814 | 74 | 156 | 6.0 | 7.0 | 0.00 | 0.00 | 0.00 | 54 | 1012.2 |
| 20260509172311 | 74 | 173 | 6.0 | 8.0 | 0.00 | 0.00 | 0.00 | 52 | 1012.1 |
| 20260509171806 | 74 | 224 | 3.0 | 3.0 | 0.00 | 0.00 | 0.00 | 54 | 1012.1 |
| 20260509171302 | 74 | 98 | 4.0 | 6.0 | 0.00 | 0.00 | 0.00 | 54 | 1011.9 |
| 20260509170759 | 71 | 233 | 3.0 | 3.0 | 0.00 | 0.00 | 0.00 | 55 | 1012.1 |
| 20260509170255 | 72 | 181 | 3.0 | 3.0 | 0.00 | 0.00 | 0.00 | 55 | 1012.3 |
| 20260509165754 | 72 | 148 | 6.0 | 8.0 | 0.00 | 0.00 | 0.00 | 57 | 1012.3 |
| 20260509165250 | 73 | 176 | 10.0 | 14.0 | 0.00 | 0.00 | 0.00 | 59 | 1012.4 |
| 20260509164746 | 71 | 298 | 4.0 | 7.0 | 0.00 | 0.00 | 0.00 | 60 | 1012.7 |
| 20260509164241 | 71 | 166 | 5.0 | 7.0 | 0.00 | 0.00 | 0.00 | 58 | 1012.9 |
| 20260509163738 | 71 | 221 | 4.0 | 6.0 | 0.00 | 0.00 | 0.00 | 58 | 1012.9 |
| 20260509163235 | 70 | 250 | 5.0 | 7.0 | 0.00 | 0.00 | 0.00 | 59 | 1012.9 |
| 20260509162733 | 71 | 209 | 6.0 | 7.0 | 0.00 | 0.00 | 0.00 | 59 | 1012.8 |
| 20260509162228 | 72 | 250 | 3.0 | 5.0 | 0.00 | 0.00 | 0.00 | 57 | 1012.7 |
| 20260509161723 | 72 | 152 | 4.0 | 5.0 | 0.00 | 0.00 | 0.00 | 58 | 1012.7 |
| 20260509161220 | 70 | 278 | 4.0 | 5.0 | 0.00 | 0.00 | 0.00 | 59 | 1012.7 |
| 20260509160715 | 70 | 200 | 2.0 | 3.0 | 0.00 | 0.00 | 0.00 | 59 | 1012.4 |
| 20260509160212 | 71 | 314 | 4.0 | 5.0 | 0.00 | 0.00 | 0.00 | 56 | 1012.8 |
| 20260509155707 | 70 | 286 | 1.0 | 1.0 | 0.00 | 0.00 | 0.00 | 57 | 1012.8 |
| 20260509155204 | 71 | 306 | 3.0 | 5.0 | 0.00 | 0.00 | 0.00 | 56 | 1012.7 |
| 20260509154700 | 70 | 312 | 3.0 | 3.0 | 0.00 | 0.00 | 0.00 | 57 | 1012.5 |
| 20260509154157 | 69 | 204 | 3.0 | 3.0 | 0.00 | 0.00 | 0.00 | 59 | 1012.7 |
| 20260509153654 | 69 | 302 | 1.0 | 2.0 | 0.00 | 0.00 | 0.00 | 58 | 1012.7 |
| 20260509153150 | 69 | 159 | 3.0 | 6.0 | 0.00 | 0.00 | 0.00 | 60 | 1013.0 |
| 20260509152646 | 69 | 166 | 8.0 | 8.0 | 0.00 | 0.00 | 0.00 | 61 | 1013.3 |
| 20260509152144 | 69 | 334 | 0.0 | 1.0 | 0.00 | 0.00 | 0.00 | 63 | 1013.7 |
| 20260509151640 | 68 | 110 | 3.0 | 3.0 | 0.00 | 0.00 | 0.00 | 63 | 1013.5 |
| 20260509151137 | 67 | 289 | 1.0 | 1.0 | 0.00 | 0.00 | 0.00 | 64 | 1013.5 |
| 20260509150636 | 67 | 176 | 4.0 | 5.0 | 0.00 | 0.00 | 0.00 | 65 | 1013.5 |
| 20260509150133 | 67 | 191 | 3.0 | 5.0 | 0.00 | 0.00 | 0.00 | 64 | 1013.0 |
| 20260509145629 | 66 | 287 | 1.0 | 1.0 | 0.00 | 0.00 | 0.00 | 65 | 1013.2 |
| 20260509145125 | 65 | 247 | 0.0 | 1.0 | 0.00 | 0.00 | 0.00 | 67 | 1013.4 |
| 20260509144621 | 65 | 284 | 3.0 | 3.0 | 0.00 | 0.00 | 0.00 | 65 | 1013.5 |
| 20260509144119 | 65 | 298 | 0.0 | 1.0 | 0.00 | 0.00 | 0.00 | 66 | 1013.6 |
| 20260509143616 | 64 | 212 | 3.0 | 3.0 | 0.00 | 0.00 | 0.00 | 67 | 1013.6 |
| 20260509143113 | 62 | 250 | 2.0 | 2.0 | 0.00 | 0.00 | 0.00 | 70 | 1013.7 |
| 20260509142608 | 62 | 167 | 4.0 | 5.0 | 0.00 | 0.00 | 0.00 | 69 | 1013.9 |